CW4167 Weather Reports


Display with metric or nautical units.
time (UTC)temp
F
wind
direction
speed
MPH
gust
MPH
rain 1hr
in
rain 24hr
in
rain mn
in
humidity
%
barometer
mb
20260509211705 43 133 3.0 3.0 0.00 0.00 0.00 73 1017.5
20260509211206 44 133 2.0 3.0 0.00 0.00 0.00 73 1017.5
20260509210205 44 133 2.0 3.0 0.00 0.00 0.00 72 1017.6
20260509205206 45 127 1.0 3.0 0.00 0.00 0.00 70 1017.6
20260509204704 46 127 0.0 0.0 0.00 0.00 0.00 70 1017.6
20260509204206 46 127 0.0 3.0 0.00 0.00 0.00 70 1017.6
20260509203705 46 127 2.0 5.0 0.00 0.00 0.00 69 1017.7
20260509203205 47 129 2.0 3.0 0.00 0.00 0.00 69 1017.6
20260509202706 47 136 3.0 3.0 0.00 0.00 0.00 68 1017.6
20260509202205 47 140 3.0 6.0 0.00 0.00 0.00 68 1017.5
20260509201205 48 119 5.0 6.0 0.00 0.00 0.00 68 1017.5
20260509195704 49 127 5.0 6.0 0.00 0.00 0.00 68 1017.6
20260509195206 49 129 5.0 6.0 0.00 0.00 0.00 68 1017.7
20260509194705 49 131 5.0 6.0 0.00 0.00 0.00 67 1017.7
20260509194206 50 126 4.0 6.0 0.00 0.00 0.00 67 1017.7
20260509192706 51 123 6.0 7.0 0.00 0.00 0.00 65 1017.6
20260509185206 54 115 7.0 10.0 0.00 0.00 0.00 58 1017.3
20260509184207 55 112 7.0 13.0 0.00 0.00 0.00 55 1017.2
20260509182705 56 118 7.0 8.0 0.00 0.00 0.00 52 1017.2
20260509181205 58 109 7.0 9.0 0.00 0.00 0.00 50 1017.2
20260509180206 58 118 9.0 13.0 0.00 0.00 0.00 49 1017.2
20260509175707 58 114 9.0 13.0 0.00 0.00 0.00 49 1017.2
20260509175205 58 103 8.0 14.0 0.00 0.00 0.00 49 1017.2
20260509174205 59 119 7.0 8.0 0.00 0.00 0.00 48 1017.3
20260509172704 59 97 10.0 15.0 0.00 0.00 0.00 47 1017.3
20260509172204 59 122 7.0 10.0 0.00 0.00 0.00 47 1017.4
20260509171705 59 112 9.0 14.0 0.00 0.00 0.00 46 1017.4
20260509171204 60 100 10.0 13.0 0.00 0.00 0.00 45 1017.4
20260509170205 60 115 10.0 16.0 0.00 0.00 0.00 45 1017.5
20260509164705 60 130 9.0 15.0 0.00 0.00 0.00 45 1017.6
20260509163705 60 122 14.0 17.0 0.00 0.00 0.00 44 1017.6
20260509162204 60 125 10.0 14.0 0.00 0.00 0.00 43 1017.8
20260509161704 60 113 10.0 16.0 0.00 0.00 0.00 43 1017.8
20260509161205 60 112 14.0 18.0 0.00 0.00 0.00 41 1017.9
20260509160705 60 99 16.0 20.0 0.00 0.00 0.00 41 1017.9
20260509160204 60 105 14.0 18.0 0.00 0.00 0.00 41 1017.9
20260509154204 61 111 13.0 16.0 0.00 0.00 0.00 42 1018.2
20260509153704 61 121 13.0 18.0 0.00 0.00 0.00 41 1018.2
20260509153204 61 114 13.0 21.0 0.00 0.00 0.00 41 1018.3
20260509151706 61 109 13.0 21.0 0.00 0.00 0.00 42 1018.4
20260509150705 61 108 10.0 15.0 0.00 0.00 0.00 42 1018.5
20260509150204 61 124 10.0 16.0 0.00 0.00 0.00 43 1018.5
20260509145704 61 127 15.0 17.0 0.00 0.00 0.00 42 1018.5
20260509145205 62 108 14.0 18.0 0.00 0.00 0.00 41 1018.6
20260509144704 62 115 14.0 18.0 0.00 0.00 0.00 42 1018.6
20260509142204 62 102 13.0 18.0 0.00 0.00 0.00 40 1018.8
20260509141704 62 119 13.0 17.0 0.00 0.00 0.00 40 1018.8
20260509140704 62 107 10.0 20.0 0.00 0.00 0.00 40 1019.0
20260509140205 62 99 12.0 17.0 0.00 0.00 0.00 39 1019.0
20260509133205 63 113 15.0 23.0 0.00 0.00 0.00 39 1019.1
20260509131704 63 124 8.0 13.0 0.00 0.00 0.00 39 1019.5
20260509131206 63 97 12.0 17.0 0.00 0.00 0.00 37 1019.5
20260509130704 63 99 12.0 20.0 0.00 0.00 0.00 39 1019.7
20260509130203 63 140 7.0 14.0 0.00 0.00 0.00 39 1019.7
20260509125704 63 113 7.0 15.0 0.00 0.00 0.00 38 1019.9
20260509125204 63 119 5.0 8.0 0.00 0.00 0.00 37 1019.9
20260509123204 63 137 8.0 15.0 0.00 0.00 0.00 39 1020.1
20260509120704 63 163 8.0 13.0 0.00 0.00 0.00 37 1020.4
20260509120205 63 127 12.0 16.0 0.00 0.00 0.00 38 1020.4
20260509115706 63 147 7.0 13.0 0.00 0.00 0.00 39 1020.4
20260509115206 62 148 11.0 17.0 0.00 0.00 0.00 37 1020.4
20260509114205 62 96 9.0 14.0 0.00 0.00 0.00 37 1020.5
20260509113705 62 128 6.0 13.0 0.00 0.00 0.00 37 1020.5
20260509112705 62 81 5.0 14.0 0.00 0.00 0.00 37 1020.5
20260509111706 62 94 12.0 16.0 0.00 0.00 0.00 36 1020.5
20260509110206 62 127 7.0 13.0 0.00 0.00 0.00 38 1020.6
20260509104706 61 91 6.0 10.0 0.00 0.00 0.00 38 1020.8
20260509103206 61 143 6.0 13.0 0.00 0.00 0.00 39 1020.8
20260509102706 61 105 10.0 16.0 0.00 0.00 0.00 38 1020.8
20260509100206 61 126 6.0 10.0 0.00 0.00 0.00 39 1020.9
20260509094706 61 65 5.0 8.0 0.00 0.00 0.00 38 1020.9
20260509094206 60 100 8.0 15.0 0.00 0.00 0.00 40 1020.8
20260509093206 60 119 11.0 16.0 0.00 0.00 0.00 38 1020.8
20260509091705 59 46 6.0 13.0 0.00 0.00 0.00 40 1021.0
20260509091206 59 38 9.0 14.0 0.00 0.00 0.00 38 1020.9
20260509090207 59 31 9.0 14.0 0.00 0.00 0.00 40 1021.0
20260509085706 59 60 6.0 9.0 0.00 0.00 0.00 40 1021.0
20260509082205 58 55 6.0 10.0 0.00 0.00 0.00 43 1021.2
20260509081705 58 71 6.0 8.0 0.00 0.00 0.00 44 1021.1
20260509081206 57 79 5.0 8.0 0.00 0.00 0.00 43 1021.2
20260509080705 57 51 9.0 14.0 0.00 0.00 0.00 44 1021.2
20260509080206 57 50 3.0 8.0 0.00 0.00 0.00 45 1021.2
20260509075206 57 73 7.0 10.0 0.00 0.00 0.00 46 1021.2
20260509074206 56 77 7.0 10.0 0.00 0.00 0.00 45 1021.3
20260509073206 56 97 5.0 7.0 0.00 0.00 0.00 47 1021.4
20260509071705 55 55 6.0 7.0 0.00 0.00 0.00 49 1021.5
20260509071205 55 45 4.0 6.0 0.00 0.00 0.00 50 1021.5
20260509065706 54 80 5.0 8.0 0.00 0.00 0.00 53 1021.5
20260509065206 53 92 5.0 8.0 0.00 0.00 0.00 54 1021.5
20260509062706 51 81 9.0 14.0 0.00 0.00 0.00 56 1021.5
20260509062207 51 72 6.0 9.0 0.00 0.00 0.00 58 1021.5
20260509061705 51 72 5.0 8.0 0.00 0.00 0.00 59 1021.5
20260509060205 50 81 6.0 8.0 0.00 0.00 0.00 62 1021.5
20260509055706 50 84 8.0 9.0 0.00 0.00 0.00 62 1021.6
20260509055205 49 70 5.0 8.0 0.00 0.00 0.00 63 1021.5
20260509053205 47 67 8.0 10.0 0.00 0.00 0.00 66 1021.6
20260509052705 46 63 5.0 10.0 0.00 0.00 0.00 68 1021.6
20260509052205 45 68 6.0 9.0 0.00 0.00 0.00 70 1021.6
20260509051206 43 61 6.0 8.0 0.00 0.00 0.00 73 1021.6
20260509050705 43 65 3.0 5.0 0.00 0.00 0.00 73 1021.6
20260509045705 42 79 3.0 5.0 0.00 0.00 0.00 73 1021.6
20260509044205 41 89 0.0 0.0 0.00 0.00 0.00 73 1021.6
20260509043705 40 89 0.0 1.0 0.00 0.00 0.00 74 1021.7
20260509043205 39 89 0.0 1.0 0.00 0.00 0.00 77 1021.7
20260509042205 37 89 1.0 1.0 0.00 0.00 0.00 77 1021.6
20260509040705 36 89 0.0 1.0 0.00 0.00 0.00 75 1021.6
20260509035705 36 89 0.0 0.0 0.00 0.00 0.00 75 1021.6
20260509034706 37 89 3.0 3.0 0.00 0.00 0.00 74 1021.6
20260509034205 37 91 5.0 5.0 0.00 0.00 0.00 74 1021.5
20260509033705 37 94 5.0 5.0 0.00 0.00 0.00 74 1021.6
20260509033205 37 94 6.0 5.0 0.00 0.00 0.00 74 1021.6
20260509032205 37 91 5.0 5.0 0.00 0.00 0.00 75 1021.5
20260509031705 37 90 5.0 5.0 0.00 0.00 0.00 75 1021.7
20260509031205 37 88 5.0 6.0 0.00 0.00 0.00 75 1021.7
20260509030205 37 89 5.0 5.0 0.00 0.00 0.00 75 1021.7
20260509025205 37 91 5.0 5.0 0.00 0.00 0.00 75 1021.8
20260509020705 38 94 6.0 6.0 0.00 0.00 0.00 75 1021.8
20260509013706 38 78 5.0 6.0 0.00 0.00 0.00 75 1022.0
20260509012706 38 73 5.0 7.0 0.00 0.00 0.00 75 1022.0
20260509012206 38 73 5.0 6.0 0.00 0.00 0.00 75 1022.1
20260509011705 38 75 5.0 6.0 0.00 0.00 0.00 75 1022.1
20260509010706 38 71 5.0 6.0 0.00 0.00 0.00 75 1022.1
20260509010205 38 74 5.0 6.0 0.00 0.00 0.00 75 1022.1
20260509005205 38 79 5.0 6.0 0.00 0.00 0.00 75 1022.1
20260509004705 38 77 5.0 5.0 0.00 0.00 0.00 75 1022.1
20260509003705 38 80 4.0 6.0 0.00 0.00 0.00 74 1022.3
20260509003205 38 75 3.0 5.0 0.00 0.00 0.00 74 1022.3
20260509000705 39 73 4.0 6.0 0.00 0.00 0.00 73 1022.4
20260508234706 39 74 4.0 6.0 0.00 0.00 0.00 73 1022.4
20260508233705 39 81 5.0 6.0 0.00 0.00 0.00 73 1022.6
20260508233205 39 82 5.0 6.0 0.00 0.00 0.00 72 1022.6
20260508231209 40 76 3.0 3.0 0.00 0.00 0.00 72 1022.6
20260508230705 40 76 3.0 5.0 0.00 0.00 0.00 71 1022.5
20260508230206 40 80 3.0 5.0 0.00 0.00 0.00 71 1022.5
20260508225205 41 87 3.0 5.0 0.00 0.00 0.00 70 1022.4
20260508224707 41 96 3.0 5.0 0.00 0.00 0.00 70 1022.4
20260508224206 41 97 5.0 5.0 0.00 0.00 0.00 69 1022.4
20260508222707 41 99 4.0 6.0 0.00 0.00 0.00 69 1022.4
20260508221206 41 105 5.0 6.0 0.00 0.00 0.00 71 1022.4
20260508220205 40 117 6.0 8.0 0.00 0.00 0.00 72 1022.3
20260508215206 40 120 3.0 6.0 0.00 0.00 0.00 70 1022.4
20260508214706 40 121 3.0 3.0 0.00 0.00 0.00 70 1022.4
20260508212705 40 143 5.0 7.0 0.00 0.00 0.00 67 1022.4
20260508212206 40 137 5.0 6.0 0.00 0.00 0.00 67 1022.3